Weather History for Springfield, IL

Change the Weather History Date:

Thursday, January 3, 2013

  Actual Average Record
Temperature  
Mean Temperature 25 °F 27 °F  
Max Temperature 34 °F 35 °F 63 °F (1880)
Min Temperature 15 °F 19 °F -9 °F (1940)
Degree Days  
Heating Degree Days 40 38  
Month to date heating degree days 143 114  
Since 1 July heating degree days 2023 2254  
Cooling Degree Days 0 0  
Month to date cooling degree days 0 0  
Year to date cooling degree days 0 0  
Moisture  
Dew Point 21 °F    
Average Humidity 82    
Maximum Humidity 92    
Minimum Humidity 71    
Precipitation  
Precipitation 0.00 in 0.07 in 1.80 in (1897)
Month to date precipitation 0.00 0.21  
Year to date precipitation 0.00 0.21  
Snow  
Snow 0.00 in 0.20 in 1.90 in (1971)
Month to date snowfall 0.0 0.6  
Since 1 July snowfall 4.6 6.8  
Snow Depth T in    
Sea Level Pressure  
Sea Level Pressure 30.30 in    
Wind  
Wind Speed 9 mph (West)    
Max Wind Speed 16 mph    
Max Gust Speed 21 mph    
Visibility 10 miles    
Events      
T = Trace of Precipitation, MM = Missing Value Source: NWS Daily Summary

Daily Weather History Graph

Daily Weather History Graph

Search for Another Location

Airport:

Trip Planner

Search our weather history database for the weather conditions in past years. The results will help you decide how hot, cold, wet, or windy it might be!

Date:

Astronomy

Jan. 03, 2013 Rise Set
Actual Time 7:20 AM CST 4:46 PM CST
Civil Twilight 6:50 AM CST 5:16 PM CST
Nautical Twilight 6:16 AM CST 5:50 PM CST
Astronomical Twilight 5:43 AM CST 6:23 PM CST
Moon 11:21 PM CST (1/3) 10:32 AM CST (1/3)
Length of Visible Light 10h 26m
Length of Day
9h 26m
Waning Gibbous, 65% of the Moon is Illuminated
Jan 3
Waning Gibbous
Jan 4
Last Quarter
Jan 11
New
Jan 18
First Quarter
Jan 26
Full

Hourly Weather History & Observations

Time (CST) Temp. Windchill Dew Point Humidity Pressure Visibility Wind Dir Wind Speed Gust Speed Precip Events Conditions
12:52 AM 21.2 °F 12.6 °F 14.0 °F 74% 30.17 in 10.0 mi SW 6.9 mph - N/A   Partly Cloudy
1:52 AM 17.1 °F 8.7 °F 10.9 °F 77% 30.21 in 10.0 mi SW 5.8 mph - N/A   Clear
2:52 AM 19.9 °F 10.1 °F 16.0 °F 85% 30.23 in 10.0 mi West 8.1 mph - N/A   Overcast
3:36 AM 23.0 °F 11.7 °F 17.6 °F 80% 30.21 in 10.0 mi West 11.5 mph - N/A   Mostly Cloudy
3:52 AM 21.9 °F 11.0 °F 18.0 °F 85% 30.23 in 10.0 mi West 10.4 mph - N/A   Overcast
4:39 AM 19.4 °F 8.6 °F 15.8 °F 86% 30.21 in 10.0 mi WSW 9.2 mph - N/A   Scattered Clouds
4:52 AM 19.0 °F 8.2 °F 15.1 °F 85% 30.24 in 10.0 mi WSW 9.2 mph - N/A   Clear
5:52 AM 17.1 °F 6.6 °F 15.1 °F 92% 30.25 in 10.0 mi West 8.1 mph - N/A   Clear
6:52 AM 15.1 °F 3.3 °F 12.9 °F 91% 30.26 in 8.0 mi WSW 9.2 mph - N/A   Clear
7:52 AM 21.9 °F 11.7 °F 19.0 °F 89% 30.28 in 7.0 mi West 9.2 mph - N/A   Overcast
8:52 AM 25.0 °F 15.5 °F 23.0 °F 92% 30.29 in 8.0 mi West 9.2 mph - N/A   Overcast
9:52 AM 27.0 °F 18.0 °F 24.1 °F 89% 30.32 in 9.0 mi WSW 9.2 mph - N/A   Overcast
10:52 AM 30.0 °F 21.1 °F 26.1 °F 85% 30.34 in 10.0 mi West 10.4 mph - N/A   Overcast
11:27 AM 30.2 °F 20.2 °F 26.6 °F 86% 30.30 in 10.0 mi West 12.7 mph - N/A   Overcast
11:52 AM 30.9 °F 21.2 °F 27.0 °F 85% 30.32 in 10.0 mi West 12.7 mph - N/A   Overcast
12:52 PM 30.9 °F 22.2 °F 28.0 °F 89% 30.30 in 10.0 mi SW 10.4 mph - N/A   Partly Cloudy
1:52 PM 32.0 °F 22.5 °F 28.9 °F 88% 30.30 in 10.0 mi WSW 12.7 mph - N/A   Overcast
2:52 PM 33.1 °F 23.9 °F 27.0 °F 78% 30.32 in 10.0 mi West 12.7 mph - N/A   Overcast
3:52 PM 33.1 °F 23.9 °F 26.1 °F 75% 30.33 in 10.0 mi West 12.7 mph - N/A   Overcast
4:52 PM 30.9 °F 24.3 °F 28.0 °F 89% 30.35 in 10.0 mi WNW 6.9 mph - N/A   Overcast
5:52 PM 30.9 °F 25.2 °F 28.0 °F 89% 30.37 in 10.0 mi WNW 5.8 mph - N/A   Overcast
6:52 PM 30.0 °F 22.4 °F 26.1 °F 85% 30.38 in 10.0 mi WNW 8.1 mph - N/A   Overcast
7:52 PM 28.0 °F 22.8 °F 24.1 °F 85% 30.39 in 10.0 mi NW 4.6 mph - N/A   Overcast
8:52 PM 27.0 °F 20.5 °F 21.9 °F 81% 30.40 in 10.0 mi NW 5.8 mph - N/A   Overcast
9:52 PM 24.1 °F 16.0 °F 19.0 °F 81% 30.40 in 10.0 mi WNW 6.9 mph - N/A   Partly Cloudy
10:52 PM 21.9 °F 15.7 °F 17.1 °F 82% 30.40 in 10.0 mi WNW 4.6 mph - N/A   Clear
11:52 PM 19.0 °F 11.1 °F 15.1 °F 85% 30.38 in 10.0 mi NNW 5.8 mph - N/A   Clear